| time (UTC) | temp F | wind direction | speed MPH | gust MPH | rain 1hr in | rain 24hr in | rain mn in | humidity % | barometer mb |
| 20260507044536 | 38 | 0 | 0.0 | 0.0 | 0.00 | 0.00 | 0.00 | 63 | 1013.8 |
| 20260507044031 | 38 | 0 | 0.0 | 0.0 | 0.00 | 0.00 | 0.00 | 62 | 1013.9 |
| 20260507043531 | 38 | 0 | 0.0 | 0.0 | 0.00 | 0.00 | 0.00 | 63 | 1013.9 |
| 20260507043044 | 37 | 0 | 0.0 | 0.0 | 0.00 | 0.00 | 0.00 | 64 | 1014.0 |
| 20260507042531 | 37 | 0 | 0.0 | 0.0 | 0.00 | 0.00 | 0.00 | 66 | 1014.1 |
| 20260507042031 | 38 | 0 | 0.0 | 0.0 | 0.00 | 0.00 | 0.00 | 67 | 1014.1 |
| 20260507041543 | 38 | 0 | 0.0 | 0.0 | 0.00 | 0.00 | 0.00 | 65 | 1014.2 |
| 20260507041031 | 39 | 0 | 0.0 | 0.0 | 0.00 | 0.00 | 0.00 | 63 | 1014.2 |
| 20260507040531 | 39 | 0 | 0.0 | 0.0 | 0.00 | 0.00 | 0.00 | 62 | 1014.3 |
| 20260507040051 | 40 | 0 | 0.0 | 0.0 | 0.00 | 0.00 | 0.00 | 61 | 1014.2 |
| 20260507035530 | 40 | 0 | 0.0 | 0.0 | 0.00 | 0.00 | 0.00 | 59 | 1014.4 |
| 20260507035031 | 41 | 0 | 0.0 | 0.0 | 0.00 | 0.00 | 0.00 | 58 | 1014.4 |
| 20260507034544 | 41 | 0 | 0.0 | 0.0 | 0.00 | 0.00 | 0.00 | 58 | 1014.4 |
| 20260507034031 | 41 | 0 | 0.0 | 0.0 | 0.00 | 0.00 | 0.00 | 58 | 1014.4 |
| 20260507033533 | 41 | 0 | 0.0 | 0.0 | 0.00 | 0.00 | 0.00 | 57 | 1014.5 |
| 20260507033040 | 41 | 0 | 0.0 | 0.0 | 0.00 | 0.00 | 0.00 | 57 | 1014.5 |
| 20260507032532 | 42 | 0 | 0.0 | 0.0 | 0.00 | 0.00 | 0.00 | 57 | 1014.5 |
| 20260507032032 | 42 | 0 | 0.0 | 0.0 | 0.00 | 0.00 | 0.00 | 56 | 1014.6 |
| 20260507031537 | 42 | 0 | 0.0 | 0.0 | 0.00 | 0.00 | 0.00 | 55 | 1014.6 |
| 20260507031033 | 42 | 0 | 0.0 | 1.0 | 0.00 | 0.00 | 0.00 | 54 | 1014.6 |
| 20260507030532 | 42 | 0 | 0.0 | 1.0 | 0.00 | 0.00 | 0.00 | 53 | 1014.6 |
| 20260507030036 | 42 | 0 | 0.0 | 0.0 | 0.00 | 0.00 | 0.00 | 52 | 1014.6 |
| 20260507025530 | 42 | 0 | 0.0 | 0.0 | 0.00 | 0.00 | 0.00 | 55 | 1014.6 |
| 20260507025031 | 43 | 0 | 0.0 | 1.0 | 0.00 | 0.00 | 0.00 | 54 | 1014.6 |
| 20260507024542 | 43 | 0 | 0.0 | 1.0 | 0.00 | 0.00 | 0.00 | 52 | 1014.7 |
| 20260507024031 | 43 | 0 | 0.0 | 1.0 | 0.00 | 0.00 | 0.00 | 49 | 1014.6 |
| 20260507023530 | 44 | 0 | 0.0 | 0.0 | 0.00 | 0.00 | 0.00 | 48 | 1014.6 |
| 20260507023040 | 44 | 0 | 0.0 | 0.0 | 0.00 | 0.00 | 0.00 | 48 | 1014.6 |
| 20260507022531 | 44 | 0 | 0.0 | 0.0 | 0.00 | 0.00 | 0.00 | 47 | 1014.7 |
| 20260507022031 | 45 | 0 | 0.0 | 0.0 | 0.00 | 0.00 | 0.00 | 47 | 1014.7 |
| 20260507021541 | 45 | 0 | 0.0 | 0.0 | 0.00 | 0.00 | 0.00 | 48 | 1014.6 |
| 20260507021030 | 46 | 0 | 0.0 | 0.0 | 0.00 | 0.00 | 0.00 | 48 | 1014.6 |
| 20260507020532 | 46 | 0 | 0.0 | 1.0 | 0.00 | 0.00 | 0.00 | 49 | 1014.6 |
| 20260507020039 | 47 | 0 | 0.0 | 1.0 | 0.00 | 0.00 | 0.00 | 50 | 1014.6 |
| 20260507015531 | 47 | 0 | 0.0 | 0.0 | 0.00 | 0.00 | 0.00 | 49 | 1014.6 |
| 20260507015031 | 48 | 0 | 0.0 | 1.0 | 0.00 | 0.00 | 0.00 | 50 | 1014.6 |
| 20260507014559 | 48 | 0 | 0.0 | 2.0 | 0.00 | 0.00 | 0.00 | 51 | 1014.6 |
| 20260507014035 | 49 | 0 | 0.0 | 3.0 | 0.00 | 0.00 | 0.00 | 51 | 1014.5 |
| 20260507013536 | 49 | 286 | 1.0 | 4.0 | 0.00 | 0.00 | 0.00 | 50 | 1014.6 |
| 20260507013043 | 49 | 286 | 1.0 | 4.0 | 0.00 | 0.00 | 0.00 | 51 | 1014.6 |
| 20260507012533 | 50 | 296 | 2.0 | 4.0 | 0.00 | 0.00 | 0.00 | 52 | 1014.6 |
| 20260507012033 | 50 | 286 | 2.0 | 4.0 | 0.00 | 0.00 | 0.00 | 50 | 1014.6 |
| 20260507011553 | 50 | 306 | 2.0 | 5.0 | 0.00 | 0.00 | 0.00 | 51 | 1014.6 |
| 20260507011029 | 50 | 253 | 2.0 | 5.0 | 0.00 | 0.00 | 0.00 | 50 | 1014.6 |
| 20260507010533 | 51 | 302 | 2.0 | 8.0 | 0.00 | 0.00 | 0.00 | 53 | 1014.6 |
| 20260507010042 | 52 | 284 | 3.0 | 8.0 | 0.00 | 0.00 | 0.00 | 54 | 1014.6 |
| 20260507005533 | 52 | 309 | 3.0 | 8.0 | 0.00 | 0.00 | 0.00 | 49 | 1014.6 |
| 20260507005030 | 53 | 305 | 2.0 | 8.0 | 0.00 | 0.00 | 0.00 | 50 | 1014.6 |
| 20260507004541 | 53 | 296 | 1.0 | 10.0 | 0.00 | 0.00 | 0.00 | 51 | 1014.8 |
| 20260507004033 | 53 | 292 | 5.0 | 10.0 | 0.00 | 0.00 | 0.00 | 47 | 1014.8 |
| 20260507003537 | 53 | 308 | 4.0 | 10.0 | 0.00 | 0.00 | 0.00 | 47 | 1014.7 |
| 20260507003049 | 54 | 284 | 5.0 | 9.0 | 0.00 | 0.00 | 0.00 | 45 | 1014.7 |
| 20260507002533 | 54 | 282 | 4.0 | 9.0 | 0.00 | 0.00 | 0.00 | 51 | 1014.8 |
| 20260507002030 | 54 | 297 | 6.0 | 9.0 | 0.00 | 0.00 | 0.00 | 46 | 1014.8 |
| 20260507001550 | 55 | 288 | 3.0 | 10.0 | 0.00 | 0.00 | 0.00 | 47 | 1014.9 |
| 20260507001029 | 55 | 277 | 6.0 | 10.0 | 0.00 | 0.00 | 0.00 | 40 | 1015.0 |
| 20260507000530 | 55 | 284 | 5.0 | 9.0 | 0.00 | 0.00 | 0.00 | 44 | 1015.0 |
| 20260507000058 | 55 | 293 | 5.0 | 10.0 | 0.00 | 0.00 | 0.00 | 45 | 1015.0 |
| 20260506235532 | 54 | 305 | 3.0 | 12.0 | 0.00 | 0.00 | 0.00 | 46 | 1015.1 |
| 20260506235031 | 55 | 317 | 7.0 | 15.0 | 0.00 | 0.00 | 0.00 | 45 | 1015.1 |
| 20260506234552 | 55 | 323 | 6.0 | 15.0 | 0.00 | 0.00 | 0.00 | 44 | 1015.0 |
| 20260506234030 | 56 | 329 | 6.0 | 15.0 | 0.00 | 0.00 | 0.00 | 41 | 1015.1 |
| 20260506233534 | 56 | 313 | 3.0 | 15.0 | 0.00 | 0.00 | 0.00 | 40 | 1015.1 |
| 20260506233048 | 56 | 286 | 7.0 | 13.0 | 0.00 | 0.00 | 0.00 | 42 | 1015.1 |
| 20260506232529 | 56 | 263 | 5.0 | 11.0 | 0.00 | 0.00 | 0.00 | 42 | 1015.2 |
| 20260506232033 | 55 | 309 | 6.0 | 11.0 | 0.00 | 0.00 | 0.00 | 40 | 1015.2 |
| 20260506231549 | 56 | 254 | 7.0 | 11.0 | 0.00 | 0.00 | 0.00 | 40 | 1015.3 |
| 20260506231030 | 56 | 296 | 2.0 | 10.0 | 0.00 | 0.00 | 0.00 | 42 | 1015.3 |
| 20260506230530 | 56 | 292 | 5.0 | 15.0 | 0.00 | 0.00 | 0.00 | 39 | 1015.3 |
| 20260506230048 | 55 | 291 | 7.0 | 15.0 | 0.00 | 0.00 | 0.00 | 41 | 1015.3 |
| 20260506225531 | 55 | 254 | 8.0 | 13.0 | 0.00 | 0.00 | 0.00 | 41 | 1015.4 |
| 20260506225033 | 56 | 325 | 6.0 | 11.0 | 0.00 | 0.00 | 0.00 | 43 | 1015.4 |
| 20260506224543 | 56 | 339 | 5.0 | 11.0 | 0.00 | 0.00 | 0.00 | 38 | 1015.5 |
| 20260506224030 | 56 | 269 | 5.0 | 14.0 | 0.00 | 0.00 | 0.00 | 40 | 1015.5 |
| 20260506223530 | 56 | 266 | 6.0 | 15.0 | 0.00 | 0.00 | 0.00 | 40 | 1015.6 |
| 20260506223041 | 56 | 259 | 7.0 | 15.0 | 0.00 | 0.00 | 0.00 | 40 | 1015.6 |
| 20260506222531 | 56 | 292 | 10.0 | 15.0 | 0.00 | 0.00 | 0.00 | 39 | 1015.7 |
| 20260506222032 | 56 | 298 | 6.0 | 16.0 | 0.00 | 0.00 | 0.00 | 40 | 1015.7 |
| 20260506221539 | 56 | 277 | 6.0 | 16.0 | 0.00 | 0.00 | 0.00 | 40 | 1015.8 |
| 20260506221030 | 57 | 264 | 9.0 | 16.0 | 0.00 | 0.00 | 0.00 | 40 | 1015.8 |
| 20260506220530 | 57 | 256 | 7.0 | 15.0 | 0.00 | 0.00 | 0.00 | 39 | 1015.8 |
| 20260506220044 | 56 | 310 | 6.0 | 15.0 | 0.00 | 0.00 | 0.00 | 40 | 1015.9 |
| 20260506215531 | 56 | 244 | 10.0 | 15.0 | 0.00 | 0.00 | 0.00 | 39 | 1015.9 |
| 20260506215031 | 55 | 223 | 5.0 | 15.0 | 0.00 | 0.00 | 0.00 | 42 | 1015.9 |
| 20260506214538 | 55 | 246 | 5.0 | 14.0 | 0.00 | 0.00 | 0.00 | 41 | 1016.1 |
| 20260506214031 | 55 | 287 | 7.0 | 14.0 | 0.00 | 0.00 | 0.00 | 39 | 1016.2 |
| 20260506213532 | 55 | 291 | 9.0 | 16.0 | 0.00 | 0.00 | 0.00 | 42 | 1016.3 |
| 20260506213044 | 55 | 258 | 6.0 | 16.0 | 0.00 | 0.00 | 0.00 | 39 | 1016.4 |
| 20260506212534 | 56 | 273 | 10.0 | 15.0 | 0.00 | 0.00 | 0.00 | 42 | 1016.5 |
| 20260506212031 | 57 | 257 | 8.0 | 15.0 | 0.00 | 0.00 | 0.00 | 43 | 1016.5 |
| 20260506211544 | 56 | 271 | 5.0 | 12.0 | 0.00 | 0.00 | 0.00 | 38 | 1016.5 |
| 20260506211031 | 56 | 327 | 4.0 | 15.0 | 0.00 | 0.00 | 0.00 | 39 | 1016.6 |
| 20260506210534 | 56 | 253 | 6.0 | 15.0 | 0.00 | 0.00 | 0.00 | 42 | 1016.7 |
| 20260506210041 | 57 | 294 | 10.0 | 15.0 | 0.00 | 0.00 | 0.00 | 38 | 1016.7 |
| 20260506205531 | 56 | 240 | 7.0 | 14.0 | 0.00 | 0.00 | 0.00 | 42 | 1016.8 |
| 20260506205031 | 56 | 250 | 3.0 | 11.0 | 0.00 | 0.00 | 0.00 | 39 | 1016.8 |
| 20260506204538 | 55 | 265 | 6.0 | 14.0 | 0.00 | 0.00 | 0.00 | 40 | 1016.9 |
| 20260506204034 | 54 | 271 | 3.0 | 14.0 | 0.00 | 0.00 | 0.00 | 39 | 1017.1 |
| 20260506203533 | 56 | 211 | 9.0 | 14.0 | 0.00 | 0.00 | 0.00 | 39 | 1017.1 |
| 20260506203057 | 56 | 260 | 7.0 | 17.0 | 0.00 | 0.00 | 0.00 | 44 | 1017.1 |
| 20260506202530 | 55 | 288 | 11.0 | 17.0 | 0.00 | 0.00 | 0.00 | 43 | 1017.1 |
| 20260506202030 | 54 | 325 | 9.0 | 17.0 | 0.00 | 0.00 | 0.00 | 44 | 1017.2 |
| 20260506201536 | 54 | 331 | 9.0 | 15.0 | 0.00 | 0.00 | 0.00 | 42 | 1017.2 |
| 20260506201031 | 56 | 282 | 9.0 | 15.0 | 0.00 | 0.00 | 0.00 | 47 | 1017.2 |
| 20260506200530 | 55 | 306 | 5.0 | 15.0 | 0.00 | 0.00 | 0.00 | 40 | 1017.3 |
| 20260506200048 | 56 | 320 | 7.0 | 15.0 | 0.00 | 0.00 | 0.00 | 45 | 1017.3 |
| 20260506195531 | 55 | 264 | 5.0 | 14.0 | 0.00 | 0.00 | 0.00 | 48 | 1017.3 |
| 20260506195031 | 54 | 203 | 4.0 | 16.0 | 0.00 | 0.00 | 0.00 | 44 | 1017.5 |
| 20260506194541 | 53 | 223 | 8.0 | 17.0 | 0.00 | 0.00 | 0.00 | 46 | 1017.6 |
| 20260506194031 | 52 | 282 | 9.0 | 17.0 | 0.00 | 0.00 | 0.00 | 49 | 1017.6 |
| 20260506193530 | 52 | 284 | 8.0 | 16.0 | 0.00 | 0.00 | 0.00 | 44 | 1017.8 |
| 20260506193039 | 53 | 303 | 8.0 | 16.0 | 0.00 | 0.00 | 0.00 | 46 | 1017.8 |
| 20260506192530 | 53 | 314 | 9.0 | 18.0 | 0.00 | 0.00 | 0.00 | 49 | 1017.8 |
| 20260506192030 | 53 | 238 | 12.0 | 18.0 | 0.00 | 0.00 | 0.00 | 47 | 1017.8 |
| 20260506191538 | 52 | 312 | 4.0 | 18.0 | 0.00 | 0.00 | 0.00 | 45 | 1017.8 |
| 20260506191030 | 52 | 267 | 11.0 | 19.0 | 0.00 | 0.00 | 0.00 | 44 | 1018.0 |
| 20260506190529 | 53 | 263 | 7.0 | 19.0 | 0.00 | 0.00 | 0.00 | 43 | 1017.9 |
| 20260506190049 | 53 | 270 | 11.0 | 19.0 | 0.00 | 0.00 | 0.00 | 42 | 1018.0 |
| 20260506185531 | 54 | 296 | 9.0 | 17.0 | 0.00 | 0.00 | 0.00 | 38 | 1017.9 |
| 20260506185031 | 54 | 312 | 11.0 | 17.0 | 0.00 | 0.00 | 0.00 | 42 | 1018.1 |
| 20260506184543 | 53 | 281 | 10.0 | 16.0 | 0.00 | 0.00 | 0.00 | 44 | 1018.1 |
| 20260506184032 | 53 | 276 | 8.0 | 15.0 | 0.00 | 0.00 | 0.00 | 40 | 1018.2 |
| 20260506183531 | 54 | 263 | 9.0 | 15.0 | 0.00 | 0.00 | 0.00 | 39 | 1018.2 |
| 20260506183042 | 54 | 257 | 8.0 | 18.0 | 0.00 | 0.00 | 0.00 | 38 | 1018.2 |
| 20260506182531 | 53 | 276 | 9.0 | 18.0 | 0.00 | 0.00 | 0.00 | 44 | 1018.3 |
| 20260506182031 | 53 | 279 | 5.0 | 17.0 | 0.00 | 0.00 | 0.00 | 42 | 1018.3 |
| 20260506181539 | 54 | 263 | 10.0 | 17.0 | 0.00 | 0.00 | 0.00 | 42 | 1018.4 |
| 20260506181033 | 53 | 269 | 11.0 | 17.0 | 0.00 | 0.00 | 0.00 | 42 | 1018.4 |
| 20260506180533 | 52 | 237 | 7.0 | 17.0 | 0.00 | 0.00 | 0.00 | 38 | 1018.4 |
| 20260506180040 | 53 | 271 | 9.0 | 18.0 | 0.00 | 0.00 | 0.00 | 42 | 1018.6 |
| 20260506175531 | 53 | 329 | 9.0 | 18.0 | 0.00 | 0.00 | 0.00 | 39 | 1018.6 |
| 20260506175030 | 53 | 327 | 6.0 | 16.0 | 0.00 | 0.00 | 0.00 | 45 | 1018.7 |
| 20260506174538 | 52 | 225 | 10.0 | 16.0 | 0.00 | 0.00 | 0.00 | 42 | 1018.7 |
| 20260506174030 | 53 | 350 | 10.0 | 15.0 | 0.00 | 0.00 | 0.00 | 44 | 1018.7 |
| 20260506173530 | 53 | 290 | 8.0 | 18.0 | 0.00 | 0.00 | 0.00 | 41 | 1018.7 |
| 20260506173052 | 52 | 312 | 10.0 | 18.0 | 0.00 | 0.00 | 0.00 | 45 | 1018.9 |
| 20260506172530 | 52 | 275 | 6.0 | 16.0 | 0.00 | 0.00 | 0.00 | 44 | 1018.7 |
| 20260506172031 | 50 | 343 | 8.0 | 16.0 | 0.00 | 0.00 | 0.00 | 43 | 1018.8 |
| 20260506171543 | 50 | 309 | 7.0 | 16.0 | 0.00 | 0.00 | 0.00 | 43 | 1018.8 |
| 20260506171032 | 50 | 323 | 11.0 | 16.0 | 0.00 | 0.00 | 0.00 | 43 | 1018.8 |
| 20260506170533 | 51 | 267 | 9.0 | 20.0 | 0.00 | 0.00 | 0.00 | 41 | 1018.7 |
| 20260506170041 | 52 | 271 | 9.0 | 20.0 | 0.00 | 0.00 | 0.00 | 44 | 1018.9 |
| 20260506165530 | 51 | 304 | 10.0 | 17.0 | 0.00 | 0.00 | 0.00 | 42 | 1018.9 |
| 20260506165031 | 51 | 304 | 9.0 | 17.0 | 0.00 | 0.00 | 0.00 | 45 | 1019.0 |
| 20260506164545 | 51 | 317 | 7.0 | 15.0 | 0.00 | 0.00 | 0.00 | 46 | 1019.2 |
| 20260506164030 | 49 | 307 | 8.0 | 19.0 | 0.00 | 0.00 | 0.00 | 44 | 1019.2 |
| 20260506163533 | 49 | 281 | 11.0 | 19.0 | 0.00 | 0.00 | 0.00 | 42 | 1019.2 |
| 20260506163054 | 51 | 246 | 9.0 | 16.0 | 0.00 | 0.00 | 0.00 | 43 | 1019.1 |
| 20260506162530 | 50 | 345 | 8.0 | 14.0 | 0.00 | 0.00 | 0.00 | 42 | 1019.1 |
| 20260506162030 | 50 | 275 | 7.0 | 14.0 | 0.00 | 0.00 | 0.00 | 46 | 1019.2 |
| 20260506161539 | 50 | 289 | 9.0 | 13.0 | 0.00 | 0.00 | 0.00 | 45 | 1019.2 |
| 20260506161030 | 50 | 331 | 7.0 | 17.0 | 0.00 | 0.00 | 0.00 | 44 | 1019.3 |
| 20260506160531 | 49 | 283 | 10.0 | 21.0 | 0.00 | 0.00 | 0.00 | 44 | 1019.2 |
| 20260506160037 | 49 | 258 | 12.0 | 21.0 | 0.00 | 0.00 | 0.00 | 42 | 1019.1 |
| 20260506155532 | 50 | 275 | 9.0 | 14.0 | 0.00 | 0.00 | 0.00 | 43 | 1019.1 |
| 20260506155031 | 50 | 327 | 10.0 | 16.0 | 0.00 | 0.00 | 0.00 | 40 | 1019.1 |
| 20260506154548 | 50 | 282 | 10.0 | 16.0 | 0.00 | 0.00 | 0.00 | 44 | 1019.1 |
| 20260506154031 | 49 | 347 | 8.0 | 16.0 | 0.00 | 0.00 | 0.00 | 42 | 1019.0 |
| 20260506153530 | 49 | 310 | 5.0 | 16.0 | 0.00 | 0.00 | 0.00 | 43 | 1019.1 |
| 20260506153040 | 48 | 340 | 9.0 | 15.0 | 0.00 | 0.00 | 0.00 | 46 | 1019.2 |
| 20260506152530 | 49 | 328 | 8.0 | 17.0 | 0.00 | 0.00 | 0.00 | 45 | 1019.1 |
| 20260506152031 | 49 | 290 | 10.0 | 17.0 | 0.00 | 0.00 | 0.00 | 44 | 1019.1 |
| 20260506151542 | 48 | 347 | 8.0 | 16.0 | 0.00 | 0.00 | 0.00 | 46 | 1019.0 |
| 20260506151030 | 48 | 325 | 9.0 | 16.0 | 0.00 | 0.00 | 0.00 | 46 | 1019.1 |
| 20260506150530 | 48 | 285 | 10.0 | 17.0 | 0.00 | 0.00 | 0.00 | 47 | 1019.1 |
| 20260506150038 | 48 | 360 | 10.0 | 17.0 | 0.00 | 0.00 | 0.00 | 47 | 1018.8 |
| 20260506145530 | 47 | 336 | 11.0 | 17.0 | 0.00 | 0.00 | 0.00 | 46 | 1018.8 |
| 20260506145031 | 47 | 322 | 10.0 | 14.0 | 0.00 | 0.00 | 0.00 | 48 | 1018.9 |
| 20260506144538 | 47 | 337 | 10.0 | 14.0 | 0.00 | 0.00 | 0.00 | 47 | 1018.9 |
| 20260506144030 | 47 | 337 | 7.0 | 12.0 | 0.00 | 0.00 | 0.00 | 52 | 1019.0 |
| 20260506143530 | 46 | 290 | 7.0 | 12.0 | 0.00 | 0.00 | 0.00 | 54 | 1019.1 |
| 20260506143039 | 46 | 331 | 7.0 | 12.0 | 0.00 | 0.00 | 0.00 | 56 | 1019.2 |
| 20260506142530 | 45 | 272 | 7.0 | 11.0 | 0.00 | 0.00 | 0.00 | 56 | 1019.1 |
| 20260506142031 | 45 | 298 | 7.0 | 11.0 | 0.00 | 0.00 | 0.00 | 58 | 1019.0 |
| 20260506141540 | 44 | 277 | 8.0 | 11.0 | 0.00 | 0.00 | 0.00 | 59 | 1019.1 |
| 20260506141032 | 44 | 285 | 6.0 | 10.0 | 0.00 | 0.00 | 0.00 | 61 | 1019.1 |
| 20260506140532 | 43 | 284 | 5.0 | 9.0 | 0.00 | 0.00 | 0.00 | 64 | 1019.1 |
| 20260506140049 | 42 | 267 | 6.0 | 9.0 | 0.00 | 0.00 | 0.00 | 66 | 1019.1 |
| 20260506135530 | 41 | 283 | 5.0 | 9.0 | 0.00 | 0.00 | 0.00 | 68 | 1019.0 |
| 20260506135034 | 41 | 355 | 3.0 | 8.0 | 0.00 | 0.00 | 0.00 | 72 | 1019.1 |
| 20260506134538 | 40 | 271 | 4.0 | 8.0 | 0.00 | 0.00 | 0.00 | 72 | 1019.1 |
| 20260506134030 | 39 | 305 | 4.0 | 8.0 | 0.00 | 0.00 | 0.00 | 74 | 1019.1 |
| 20260506133529 | 38 | 313 | 4.0 | 7.0 | 0.00 | 0.00 | 0.00 | 76 | 1019.1 |
| 20260506133048 | 37 | 277 | 3.0 | 7.0 | 0.00 | 0.00 | 0.00 | 78 | 1019.1 |
| 20260506132530 | 36 | 282 | 4.0 | 7.0 | 0.00 | 0.00 | 0.00 | 79 | 1019.1 |
| 20260506132034 | 35 | 298 | 3.0 | 8.0 | 0.00 | 0.00 | 0.00 | 80 | 1019.1 |
| 20260506131544 | 34 | 289 | 3.0 | 8.0 | 0.00 | 0.00 | 0.00 | 80 | 1019.1 |
| 20260506131030 | 34 | 267 | 5.0 | 8.0 | 0.00 | 0.00 | 0.00 | 80 | 1019.1 |
| 20260506130530 | 33 | 285 | 4.0 | 7.0 | 0.00 | 0.00 | 0.00 | 80 | 1019.1 |
| 20260506130042 | 33 | 287 | 3.0 | 6.0 | 0.00 | 0.00 | 0.00 | 79 | 1019.1 |
| 20260506125530 | 33 | 301 | 2.0 | 5.0 | 0.00 | 0.00 | 0.00 | 81 | 1019.1 |
| 20260506125030 | 32 | 300 | 2.0 | 7.0 | 0.00 | 0.00 | 0.00 | 82 | 1019.0 |
| 20260506124544 | 32 | 317 | 3.0 | 7.0 | 0.00 | 0.00 | 0.00 | 83 | 1018.9 |
| 20260506124030 | 31 | 284 | 3.0 | 7.0 | 0.00 | 0.00 | 0.00 | 83 | 1018.9 |
| 20260506123530 | 30 | 314 | 3.0 | 6.0 | 0.00 | 0.00 | 0.00 | 84 | 1018.8 |
| 20260506123039 | 30 | 277 | 1.0 | 3.0 | 0.00 | 0.00 | 0.00 | 84 | 1018.6 |
| 20260506122531 | 29 | 280 | 1.0 | 4.0 | 0.00 | 0.00 | 0.00 | 84 | 1018.5 |
| 20260506122031 | 29 | 267 | 2.0 | 4.0 | 0.00 | 0.00 | 0.00 | 84 | 1018.5 |
| 20260506121546 | 28 | 276 | 2.0 | 6.0 | 0.00 | 0.00 | 0.00 | 84 | 1018.4 |
| 20260506121030 | 28 | 269 | 2.0 | 6.0 | 0.00 | 0.00 | 0.00 | 84 | 1018.4 |
| 20260506120530 | 28 | 269 | 3.0 | 6.0 | 0.00 | 0.00 | 0.00 | 84 | 1018.3 |
| 20260506120044 | 27 | 267 | 2.0 | 3.0 | 0.00 | 0.00 | 0.00 | 83 | 1018.2 |
| 20260506115530 | 27 | 267 | 1.0 | 3.0 | 0.00 | 0.00 | 0.00 | 83 | 1018.1 |
| 20260506115029 | 27 | 248 | 1.0 | 3.0 | 0.00 | 0.00 | 0.00 | 83 | 1018.0 |
| 20260506114542 | 27 | 248 | 1.0 | 2.0 | 0.00 | 0.00 | 0.00 | 83 | 1018.1 |
| 20260506114031 | 27 | 0 | 0.0 | 2.0 | 0.00 | 0.00 | 0.00 | 83 | 1018.1 |
| 20260506113532 | 27 | 0 | 0.0 | 2.0 | 0.00 | 0.00 | 0.00 | 83 | 1018.0 |
| 20260506113040 | 27 | 0 | 0.0 | 2.0 | 0.00 | 0.00 | 0.00 | 83 | 1017.8 |
| 20260506112533 | 27 | 0 | 0.0 | 2.0 | 0.00 | 0.00 | 0.00 | 83 | 1017.8 |
| 20260506112030 | 27 | 0 | 0.0 | 1.0 | 0.00 | 0.00 | 0.00 | 82 | 1017.8 |
| 20260506111539 | 27 | 0 | 0.0 | 1.0 | 0.00 | 0.00 | 0.00 | 81 | 1017.7 |
| 20260506111030 | 28 | 0 | 0.0 | 0.0 | 0.00 | 0.00 | 0.00 | 81 | 1017.7 |
| 20260506110530 | 28 | 0 | 0.0 | 2.0 | 0.00 | 0.00 | 0.00 | 82 | 1017.6 |
| 20260506110041 | 28 | 0 | 0.0 | 2.0 | 0.00 | 0.00 | 0.00 | 82 | 1017.6 |
| 20260506105530 | 28 | 250 | 1.0 | 2.0 | 0.00 | 0.00 | 0.00 | 82 | 1017.6 |
| 20260506105030 | 28 | 0 | 0.0 | 1.0 | 0.00 | 0.00 | 0.00 | 82 | 1017.6 |
| 20260506104536 | 28 | 0 | 0.0 | 0.0 | 0.00 | 0.00 | 0.00 | 82 | 1017.6 |
| 20260506104030 | 28 | 0 | 0.0 | 0.0 | 0.00 | 0.00 | 0.00 | 81 | 1017.6 |
| 20260506103530 | 28 | 0 | 0.0 | 1.0 | 0.00 | 0.00 | 0.00 | 81 | 1017.5 |
| 20260506103040 | 28 | 0 | 0.0 | 2.0 | 0.00 | 0.00 | 0.00 | 80 | 1017.5 |
| 20260506102531 | 28 | 0 | 0.0 | 3.0 | 0.00 | 0.00 | 0.00 | 80 | 1017.5 |
| 20260506102034 | 29 | 250 | 1.0 | 3.0 | 0.00 | 0.00 | 0.00 | 80 | 1017.4 |
| 20260506101603 | 29 | 250 | 1.0 | 3.0 | 0.00 | 0.00 | 0.00 | 79 | 1017.5 |
| 20260506101031 | 29 | 250 | 1.0 | 3.0 | 0.00 | 0.00 | 0.00 | 79 | 1017.5 |
| 20260506100530 | 29 | 0 | 0.0 | 0.0 | 0.00 | 0.00 | 0.00 | 79 | 1017.3 |
| 20260506100039 | 29 | 0 | 0.0 | 0.0 | 0.00 | 0.00 | 0.00 | 79 | 1017.2 |
| 20260506095532 | 29 | 0 | 0.0 | 0.0 | 0.00 | 0.00 | 0.00 | 79 | 1017.1 |
| 20260506095033 | 29 | 0 | 0.0 | 0.0 | 0.00 | 0.00 | 0.00 | 78 | 1017.0 |
| 20260506094539 | 29 | 0 | 0.0 | 0.0 | 0.00 | 0.00 | 0.00 | 78 | 1017.0 |
| 20260506094032 | 29 | 0 | 0.0 | 0.0 | 0.00 | 0.00 | 0.00 | 77 | 1017.0 |
| 20260506093530 | 29 | 0 | 0.0 | 0.0 | 0.00 | 0.00 | 0.00 | 76 | 1016.9 |
| 20260506093037 | 30 | 0 | 0.0 | 0.0 | 0.00 | 0.00 | 0.00 | 76 | 1016.8 |
| 20260506092532 | 30 | 0 | 0.0 | 0.0 | 0.00 | 0.00 | 0.00 | 76 | 1016.8 |
| 20260506092030 | 30 | 0 | 0.0 | 0.0 | 0.00 | 0.00 | 0.00 | 75 | 1016.8 |
| 20260506091544 | 30 | 0 | 0.0 | 0.0 | 0.00 | 0.00 | 0.00 | 75 | 1016.8 |
| 20260506091030 | 30 | 0 | 0.0 | 1.0 | 0.00 | 0.00 | 0.00 | 74 | 1016.8 |
| 20260506090531 | 31 | 0 | 0.0 | 2.0 | 0.00 | 0.00 | 0.00 | 74 | 1016.8 |
| 20260506090049 | 31 | 0 | 0.0 | 2.0 | 0.00 | 0.00 | 0.00 | 75 | 1016.8 |
| 20260506085531 | 31 | 0 | 0.0 | 2.0 | 0.00 | 0.00 | 0.00 | 74 | 1016.8 |
| 20260506085032 | 31 | 350 | 0.0 | 2.0 | 0.00 | 0.00 | 0.00 | 74 | 1016.9 |
| 20260506084546 | 31 | 0 | 0.0 | 2.0 | 0.00 | 0.00 | 0.00 | 74 | 1016.9 |
| 20260506084031 | 31 | 351 | 0.0 | 2.0 | 0.00 | 0.00 | 0.00 | 74 | 1016.8 |
| 20260506083533 | 31 | 0 | 0.0 | 0.0 | 0.00 | 0.00 | 0.00 | 73 | 1016.8 |
| 20260506083039 | 32 | 0 | 0.0 | 2.0 | 0.00 | 0.00 | 0.00 | 73 | 1016.9 |
| 20260506082533 | 32 | 0 | 0.0 | 2.0 | 0.00 | 0.00 | 0.00 | 72 | 1016.9 |
| 20260506082030 | 32 | 347 | 0.0 | 3.0 | 0.00 | 0.00 | 0.00 | 72 | 1016.9 |
| 20260506081543 | 32 | 347 | 0.0 | 3.0 | 0.00 | 0.00 | 0.00 | 73 | 1016.8 |
| 20260506081030 | 32 | 346 | 0.0 | 2.0 | 0.00 | 0.00 | 0.00 | 73 | 1016.9 |
| 20260506080532 | 32 | 287 | 0.0 | 2.0 | 0.00 | 0.00 | 0.00 | 74 | 1016.9 |
| 20260506073041 | 32 | 0 | 0.0 | 1.0 | 0.00 | 0.00 | 0.00 | 71 | 1017.0 |
| 20260506072532 | 33 | 0 | 0.0 | 0.0 | 0.00 | 0.00 | 0.00 | 70 | 1017.0 |
| 20260506072032 | 33 | 0 | 0.0 | 0.0 | 0.00 | 0.00 | 0.00 | 71 | 1017.0 |
| 20260506071542 | 33 | 0 | 0.0 | 0.0 | 0.00 | 0.00 | 0.00 | 71 | 1017.1 |
| 20260506071029 | 33 | 0 | 0.0 | 1.0 | 0.00 | 0.00 | 0.00 | 71 | 1017.0 |
| 20260506070529 | 34 | 0 | 0.0 | 2.0 | 0.00 | 0.00 | 0.00 | 71 | 1017.0 |
| 20260506062030 | 36 | 0 | 0.0 | 0.0 | 0.00 | 0.00 | 0.00 | 62 | 1016.6 |
| 20260506061536 | 37 | 0 | 0.0 | 0.0 | 0.00 | 0.00 | 0.00 | 62 | 1016.5 |
| 20260506061033 | 37 | 0 | 0.0 | 1.0 | 0.00 | 0.00 | 0.00 | 62 | 1016.5 |
| 20260506060529 | 37 | 0 | 0.0 | 1.0 | 0.00 | 0.00 | 0.00 | 61 | 1016.4 |
| 20260506051029 | 37 | 0 | 0.0 | 0.0 | 0.00 | 0.00 | 0.00 | 66 | 1016.1 |
| 20260506050529 | 38 | 0 | 0.0 | 0.0 | 0.00 | 0.00 | 0.00 | 65 | 1016.1 |
| 20260506045030 | 38 | 0 | 0.0 | 0.0 | 0.00 | 0.00 | 0.00 | 58 | 1016.0 |